TimeCDT,TemperatureF,Dew PointF,Humidity,Sea Level PressureIn,VisibilityMPH,Wind Direction,Wind SpeedMPH,Gust SpeedMPH,PrecipitationIn,Events,Conditions,WindDirDegrees,DateUTC
12:53 AM,57.0,54.0,89,30.13,10.0,Calm,Calm,-,N/A,,Clear,0,2013-08-17 05:53:00
1:53 AM,57.0,54.0,89,30.13,10.0,Calm,Calm,-,N/A,,Clear,0,2013-08-17 06:53:00
2:53 AM,57.0,53.1,87,30.14,10.0,Calm,Calm,-,N/A,,Partly Cloudy,0,2013-08-17 07:53:00
3:53 AM,57.0,53.1,87,30.14,10.0,Calm,Calm,-,N/A,,Overcast,0,2013-08-17 08:53:00
4:53 AM,54.0,52.0,93,30.14,10.0,Calm,Calm,-,N/A,,Clear,0,2013-08-17 09:53:00
5:53 AM,55.0,52.0,89,30.14,10.0,Calm,Calm,-,N/A,,Clear,0,2013-08-17 10:53:00
6:53 AM,55.0,52.0,89,30.15,10.0,WNW,3.5,-,N/A,,Clear,300,2013-08-17 11:53:00
7:53 AM,57.9,54.0,87,30.15,10.0,Calm,Calm,-,N/A,,Clear,0,2013-08-17 12:53:00
8:53 AM,64.9,57.0,75,30.17,10.0,Calm,Calm,-,N/A,,Clear,0,2013-08-17 13:53:00
9:53 AM,70.0,57.9,65,30.17,10.0,SE,3.5,-,N/A,,Clear,130,2013-08-17 14:53:00
10:53 AM,73.0,55.0,53,30.17,10.0,East,6.9,-,N/A,,Clear,90,2013-08-17 15:53:00
11:53 AM,73.9,54.0,50,30.15,10.0,East,6.9,-,N/A,,Clear,90,2013-08-17 16:53:00
12:53 PM,75.9,48.9,38,30.14,10.0,ENE,8.1,-,N/A,,Clear,70,2013-08-17 17:53:00
1:53 PM,77.0,53.1,43,30.12,10.0,SE,6.9,-,N/A,,Clear,130,2013-08-17 18:53:00
2:53 PM,78.1,54.0,43,30.10,10.0,Variable,3.5,-,N/A,,Clear,0,2013-08-17 19:53:00
3:53 PM,79.0,55.0,44,30.09,10.0,ESE,9.2,-,N/A,,Partly Cloudy,120,2013-08-17 20:53:00
4:53 PM,78.1,55.9,46,30.09,10.0,SSE,6.9,-,N/A,,Scattered Clouds,150,2013-08-17 21:53:00
5:53 PM,78.1,55.9,46,30.08,10.0,ESE,3.5,-,N/A,,Clear,110,2013-08-17 22:53:00
6:53 PM,77.0,55.9,48,30.07,10.0,Calm,Calm,-,N/A,,Clear,0,2013-08-17 23:53:00
7:53 PM,73.9,57.0,55,30.08,10.0,ENE,5.8,-,N/A,,Clear,60,2013-08-18 00:53:00
8:53 PM,69.1,60.1,73,30.08,10.0,ESE,3.5,-,N/A,,Clear,110,2013-08-18 01:53:00
9:53 PM,69.1,57.9,68,30.10,10.0,ESE,4.6,-,N/A,,Clear,120,2013-08-18 02:53:00
10:53 PM,66.0,57.9,75,30.09,10.0,WNW,3.5,-,N/A,,Clear,290,2013-08-18 03:53:00
11:53 PM,64.9,57.9,78,30.10,10.0,Calm,Calm,-,N/A,,Clear,0,2013-08-18 04:53:00